TimeCDT,TemperatureF,Dew PointF,Humidity,Sea Level PressureIn,VisibilityMPH,Wind Direction,Wind SpeedMPH,Gust SpeedMPH,PrecipitationIn,Events,Conditions,WindDirDegrees,DateUTC
12:56 AM,55.0,39.9,57,30.08,10.0,SE,4.6,-,N/A,,Clear,140,2013-03-10 06:56:00
1:56 AM,54.0,39.0,57,30.06,10.0,SSE,4.6,-,N/A,,Clear,160,2013-03-10 07:56:00
3:56 AM,54.0,37.9,55,30.07,10.0,Calm,Calm,-,N/A,,Clear,0,2013-03-10 08:56:00
4:56 AM,53.1,37.0,55,30.08,10.0,ESE,4.6,-,N/A,,Clear,120,2013-03-10 09:56:00
5:56 AM,54.0,39.9,59,30.06,10.0,ESE,9.2,-,N/A,,Clear,120,2013-03-10 10:56:00
6:56 AM,53.1,43.0,69,30.07,10.0,SE,9.2,-,N/A,,Clear,130,2013-03-10 11:56:00
7:56 AM,54.0,45.0,72,30.07,10.0,SE,8.1,-,N/A,,Clear,130,2013-03-10 12:56:00
8:56 AM,59.0,48.0,67,30.09,10.0,SE,9.2,18.4,N/A,,Clear,140,2013-03-10 13:56:00
9:56 AM,63.0,48.0,58,30.10,10.0,SSE,5.8,17.3,N/A,,Clear,150,2013-03-10 14:56:00
10:56 AM,66.0,48.9,54,30.09,10.0,SE,11.5,20.7,N/A,,Clear,140,2013-03-10 15:56:00
11:56 AM,69.1,48.9,49,30.07,10.0,SSE,16.1,24.2,N/A,,Clear,160,2013-03-10 16:56:00
12:56 PM,70.0,48.9,47,30.06,10.0,South,16.1,25.3,N/A,,Clear,170,2013-03-10 17:56:00
1:56 PM,73.0,50.0,44,30.04,10.0,South,15.0,21.9,N/A,,Clear,190,2013-03-10 18:56:00
2:56 PM,75.9,46.9,36,30.02,10.0,South,18.4,28.8,N/A,,Clear,180,2013-03-10 19:56:00
3:56 PM,75.0,50.0,41,30.02,10.0,South,15.0,26.5,N/A,,Partly Cloudy,180,2013-03-10 20:56:00
4:56 PM,73.0,48.9,42,30.01,10.0,South,15.0,24.2,N/A,,Clear,170,2013-03-10 21:56:00
5:56 PM,70.0,51.1,51,30.00,10.0,SSE,13.8,20.7,N/A,,Clear,160,2013-03-10 22:56:00
6:56 PM,66.9,51.1,57,30.00,10.0,SSE,6.9,-,N/A,,Clear,150,2013-03-10 23:56:00
7:56 PM,64.9,48.9,56,30.01,10.0,South,12.7,17.3,N/A,,Partly Cloudy,170,2013-03-11 00:56:00
8:56 PM,63.0,48.9,60,30.01,10.0,SSE,11.5,-,N/A,,Clear,160,2013-03-11 01:56:00
9:56 PM,61.0,50.0,67,30.02,10.0,SSE,9.2,-,N/A,,Clear,160,2013-03-11 02:56:00
10:56 PM,59.0,50.0,72,30.01,10.0,SE,8.1,-,N/A,,Clear,140,2013-03-11 03:56:00
11:56 PM,57.9,50.0,75,29.98,10.0,SSE,8.1,-,N/A,,Clear,150,2013-03-11 04:56:00
12:56 AM,59.0,48.9,69,29.94,10.0,SE,8.1,-,N/A,,Clear,140,2013-03-11 05:56:00